Regional Weather Roundup
Issued by NWS Charleston, SC

Current Version | Previous Version | Graphics & Text | Print | Product List | Glossary On
Versions: 1 2 3 4 5 6 7 8 9 10 11 12 13 14 15 16 17 18 19 20 21 22 23 24 25 26 27 28 29 30 31 32 33 34 35 36 37 38 39 40 41 42 43 44 45 46 47 48 49 50
000 ASUS42 KCHS 300512 RWRCHS REGIONAL WEATHER ROUNDUP NATIONAL WEATHER SERVICE CHARLESTON SC 100 AM EDT TUE JUN 30 2015 NOTE: "FAIR" INDICATES FEW OR NO CLOUDS BELOW 12,000 FEET WITH NO SIGNIFICANT WEATHER AND/OR OBSTRUCTIONS TO VISIBILITY. NOT ALL STATIONS ARE QUALITY CONTROLLED BY THE NATIONAL WEATHER SERVICE. USE DATA WITH CAUTION...ESPECIALLY DEWPOINT OBSERVATIONS. SCZ027-030-031-034>040-042>050-300600- ...SOUTHEAST SOUTH CAROLINA... CITY SKY/WX TMP DP RH WIND PRES REMARKS N CHARLESTON CLEAR 76 72 87 SW7 30.00R WATERFRONT PAR N/A 79 74 85 SW7 29.97S MOUNT PLEASANT LGT RAIN 79 73 83 SW3 30.00S JOHNS ISLAND FAIR 79 73 83 CALM 30.00F PINOPOLIS NOT AVBL MONCKS CORNER FAIR 75 72 88 SW3 29.99F SUMMERVILLE NOT AVBL BEAUFORT MCAS CLEAR 77 70 79 CALM 30.01S BEAUFORT ARPT FAIR 77 73 88 S3 30.01R HILTON HEAD IS CLEAR 77 75 94 S3 30.03R WALTERBORO CLEAR 72 64 78 SW5 30.00F ALLENDALE FAIR 75 66 73 CALM 29.99F ...SOUTHERN MIDLANDS AND PEE DEE... CITY SKY/WX TMP DP RH WIND PRES REMARKS GEORGETOWN NOT AVBL KINGSTREE NOT AVBL ORANGEBURG CLEAR 71 62 73 S5 29.99S BARNWELL FAIR 73 64 73 SW3 29.99F AIKEN FAIR N/A N/A N/A SW5 30.03S MANNING FAIR 70 61 73 CALM 29.98F COLUMBIA CLEAR 72 64 76 CALM 29.97F SUMTER CLEAR 76 59 56 SW7 29.95F FLORENCE CLEAR 73 62 68 CALM 29.97R MYRTLE BEACH CLEAR 79 66 65 SW7 30.00S N MYRTLE BEACH PTCLDY 78 68 71 SW7 29.98S $$ GAZ063-065-086>088-099>101-113>116-118-119-134>141-150-300600- ...SOUTHEAST GEORGIA... CITY SKY/WX TMP DP RH WIND PRES REMARKS SAVANNAH ARPT CLEAR 75 66 73 S7 30.02S HUNTER AAF CLEAR 76 72 87 SW5 30.00R FORT STEWART PTCLDY 72 67 84 S2 30.00S STATESBORO CLEAR 74 69 83 CALM 30.01S SYLVANIA CLEAR 72 70 94 CALM 30.02S CLAXTON FAIR 70 68 94 CALM 30.02S ...CSRA...CENTRAL AND FAR SOUTHEAST GEORGIA... CITY SKY/WX TMP DP RH WIND PRES REMARKS THOMSON CLEAR 71 67 85 CALM 30.05R AUGUSTA-BUSH CLEAR 69 65 86 CALM 29.98F AUGUSTA-DANIEL CLEAR 77 61 57 CALM 30.00F SWAINSBORO FAIR 75 68 78 CALM 30.02F VIDALIA CLEAR 73 64 73 SW3 30.03S EASTMAN FAIR 76 66 72 SW3 30.05S HAZLEHURST FAIR 75 68 77 CALM 30.02S ALMA CLEAR 71 67 87 CALM 30.03S WAYCROSS PTCLDY 74 72 93 CALM 30.04R JESUP FAIR 73 70 88 W3 30.03S BAXLEY FAIR 73 68 83 CALM 30.03S BRUNSWICK PTCLDY 72 70 94 CALM 30.03S SAINT SIMONS PTCLDY 76 73 91 CALM 30.02S $$ SCZ027-028-034-036>038-045-046-048>050-GAZ119-141-300600- ...LAKE AND SUPPLEMENTAL COASTAL OBSERVATIONS... STATION/POSITION TIME TEMP WIND PRES WAVE SWELL AIR SEA DIR/SP/G HT/PER HT/PER/DIR (UTC) (F) (DEG/KT/KT) (MB) (FT/S) (FT/S/D) UPR LAKE MARION NOT AVBL WINYAH BAY 0345 78 230/ 6 1015.0 LAKE MURRAY 0400 82 230/ 6/ 7 1014.9S ACE BASIN NERRS NOT AVBL FORT PULASKI 0400 79 84 210/ 4/ 6 1016.6F SAPELO ISLAND 0400 78 190/ 5 1017.0S $$ ANZ835-935-AMZ111-154-330-350-352-354-370-450-454-472-300600- ...C-MAN AND BUOY OBSERVATIONS... STATION/POSITION TIME TEMP WIND PRES WAVE SWELL AIR SEA DIR/SP/G HT/PER HT/PER/DIR (UTC) (F) (DEG/KT/KT) (MB) (FT/S) (FT/S/D) BUOY 41004 0450 81 83 230/ 16/ 17 1015.5R 4/ 7 3/ 7 BUOY 41008 0450 79 80 200/ 12/ 14 1016.9R 2/ 8 2/130/ 8 FOLLY BEACH CMAN 0500 80 230/ 10/ 12 1015.9S CAPERS NEARSHORE 0408 81 230/ 16/ 21 1016.1R FRIPP NEARSHORE 0400 81 220/ 16/ 17 1015.8F STATION/POSITION TIME TEMP WIND PRES WAVE SWELL AIR SEA DIR/SP/G HT/PER HT/PER/DIR (UTC) (F) (DEG/KT/KT) (MB) (FT/S) (FT/S/D) 5E ST. MARYS GA 0421 78 N/A 2/ 8 FRYING PAN BUOY 0450 82 80 230/ 14/ 16 1015.9R 4/ 7 3/150/ 7 BUOY 41025 0450 79 80 250/ 12/ 14 1015.2F 4/ 8 3/160/ 8 CAPE LOOKOUT NC 0400 79 230/ 6/ 11 1015.3R BUOY 41002 0450 80 80 230/ 12/ 14 1017.8F 5/ 6 3/210/ 6 BUOY 41010 0420 81 84 240/ 12/ 16 1018.6R ST AUGUSTINE FL 0500 75 74 220/ 8/ 10 1018.3R $$

USA.gov is the U.S. government's official web portal to all federal, state and local government web resources and services.